Weather in Kyzlas

Russia / Republic of Khakassia     53°07′00″N   89°57′22″E
temp.,
°C
wind,
m/s
gust,
m/s
humid.,
%
clouds,
%
prec.,
mm/h
press.,
hPa
HPBL,
m
18 may, tue
tue1801:00+10e119392 0.6 101323
04:00+10sw2293100 0.3 101214
07:00+11sw248886 0.3 1011175
10:00+14sw71579100 0.1 1007888
13:00+18wsw101764100 1.9 10051556
16:00+20wsw91766100 2.2 10021890
19:00+14wsw388053 8.4 1004226
22:00+11ene489586 2.9 1007373
19 may, wed
wed1901:00+11n118917 2.9 100624
04:00+10s1193100 0.1 100432
07:00+10sw1297100 3.8 1001145
10:00+10s3798100 17.1 1001302
13:00+14wsw91583100 19.0 9991218
16:00+13ne2379100 7.1 1000491
19:00+5ene4891100 8.4 1007743
22:00+4nne2696100 1.8 1009551
20 may, thu
thu2001:00+4n2596100 2.8 1009491
04:00+3ne2688100 0.6 1009568
07:00+4nnw1371100 0.8 1008712
10:00+6ese2359100 0.0 10071388
13:00+6ene3459100 0.2 10071251
16:00+4n3584100 1.3 1009649
19:00+1wnw12100100 11.2 1012111
22:000wnw11100100 5.9 1016131
21 may, fri
fri2101:000sw1199100 7.6 101773
04:00−2wsw2298100 0.0 101944
07:000w239595 0.1 1021132
10:00+2sw3496100 0.2 1022568
13:00+5wnw6869100 0.6 10221512
16:00+7wnw575440 0.0 10221847
19:00+6wnw48695 0.1 1024910
22:00+1wsw33845 0.0 102745
22 may, sat
sat2201:000wsw238698 0.0 102870
04:00−1sw2389100 0.0 102846
07:00+1sw2380100 0.0 1029211
10:00+6sw33675 0.0 1026751
13:00+10sw345094 0.2 10241752
16:00+11w344695 0.1 10221745
19:00+10nw2361100 0.2 1022190
22:00+6w116699 0.0 102310